Las Vegas, NM

4:27 PM MST on February 24, 2017 (GMT -0700)
Las Vegas Municipal

Weather History for KLVS - July, 2013

Change the Weather History Date:

Saturday, July 20, 2013

  Actual Average Record
Temperature  
Mean Temperature 68 °F -  
Max Temperature 80 °F 81 °F 92 °F (1952)
Min Temperature 57 °F 53 °F 47 °F (1992)
Cooling Degree Days 3    
Growing Degree Days 18 (Base 50)    
Moisture  
Dew Point 53 °F    
Average Humidity 66    
Maximum Humidity 90    
Minimum Humidity 39    
Precipitation  
Precipitation 0.53 in - - ()
Sea Level Pressure  
Sea Level Pressure 29.96 in    
Wind  
Wind Speed 11 mph (SSW)    
Max Wind Speed 36 mph    
Max Gust Speed 45 mph    
Visibility 8 miles    
Events Rain , Thunderstorm    
Averages and records for this station are not official NWS values.
T = Trace of Precipitation, MM = Missing Value Source: NWS Daily Summary

Daily Weather History Graph

Daily Weather History Graph

Search for Another Location

Airport or City:

Trip Planner

Search our weather history database for the weather conditions in past years. The results will help you decide how hot, cold, wet, or windy it might be!

Date:

Astronomy

Jul. 20, 2013 Rise Set
Actual Time 5:59 AM MDT 8:13 PM MDT
Civil Twilight 5:30 AM MDT 8:42 PM MDT
Nautical Twilight 4:55 AM MDT 9:17 PM MDT
Astronomical Twilight 4:16 AM MDT 9:56 PM MDT
Moon 6:20 PM MDT (7/20) 3:42 AM MDT (7/20)
Length of Visible Light 15h 11m
Length of Day
14h 13m
Waxing Gibbous, 94% of the Moon is Illuminated
Jul 20
Waxing Gibbous
Jul 22
Full
Jul 29
Last Quarter
Aug 6
New
Aug 14
First Quarter

Hourly Weather History & Observations

Time (MDT) Temp. Dew Point Humidity Pressure Visibility Wind Dir Wind Speed Gust Speed Precip Events Conditions
12:53 AM 60.1 °F 54.0 °F 80% 29.97 in 10.0 mi East 13.8 mph - N/A   Clear
1:53 AM 59.0 °F 55.0 °F 87% 29.96 in 10.0 mi East 12.7 mph - N/A   Clear
2:53 AM 57.9 °F 55.0 °F 90% 29.95 in 10.0 mi East 10.4 mph - N/A   Clear
3:53 AM 57.9 °F 55.0 °F 90% 29.93 in 10.0 mi Calm Calm - N/A   Scattered Clouds
4:53 AM 57.9 °F 55.0 °F 90% 29.92 in 10.0 mi SSW 6.9 mph - N/A   Overcast
5:53 AM 57.9 °F 55.0 °F 90% 29.92 in 10.0 mi SSW 4.6 mph - N/A   Overcast
6:53 AM 57.9 °F 55.0 °F 90% 29.96 in 10.0 mi Calm Calm - N/A   Clear
7:53 AM 61.0 °F 55.0 °F 81% 29.96 in 10.0 mi NW 3.5 mph - N/A   Partly Cloudy
8:53 AM 64.9 °F 55.0 °F 70% 29.95 in 10.0 mi SSW 11.5 mph - N/A   Clear
9:53 AM 69.1 °F 55.0 °F 61% 29.93 in 10.0 mi SSW 13.8 mph - N/A   Clear
10:53 AM 73.0 °F 53.1 °F 49% 29.91 in 10.0 mi SSW 12.7 mph - N/A   Clear
11:53 AM 75.0 °F 52.0 °F 44% 29.88 in 10.0 mi South 15.0 mph 25.3 mph N/A   Clear
12:53 PM 78.1 °F 52.0 °F 40% 29.86 in 10.0 mi South 12.7 mph 21.9 mph N/A   Clear
1:53 PM 78.1 °F 53.1 °F 42% 29.84 in 10.0 mi SE 12.7 mph 25.3 mph N/A   Mostly Cloudy
2:53 PM 79.0 °F 52.0 °F 39% 29.83 in 10.0 mi South 13.8 mph - N/A   Scattered Clouds
3:53 PM 77.0 °F 51.1 °F 40% 29.82 in 10.0 mi SSW 11.5 mph - N/A   Mostly Cloudy
4:53 PM 77.0 °F 53.1 °F 43% 29.81 in 10.0 mi WSW 13.8 mph - N/A   Mostly Cloudy
5:08 PM 75.2 °F 51.8 °F 44% 30.14 in 10.0 mi SW 13.8 mph - N/A Thunderstorm Overcast
5:33 PM 62.6 °F 57.2 °F 82% 30.16 in 3.0 mi NE 35.7 mph 44.9 mph 0.04 in Rain , Thunderstorm Thunderstorms and Rain
5:36 PM 60.8 °F 57.2 °F 88% 30.17 in 1.8 mi NE 34.5 mph 44.9 mph 0.06 in Rain , Thunderstorm Heavy Thunderstorms and Rain
5:45 PM 64.4 °F 53.6 °F 68% 30.18 in 1.0 mi NW 10.4 mph 40.3 mph 0.24 in Rain , Thunderstorm Heavy Thunderstorms and Rain
5:51 PM 66.2 °F 48.2 °F 52% 30.18 in 0.8 mi WSW 11.5 mph 26.5 mph 0.42 in Rain , Thunderstorm Heavy Thunderstorms and Rain
5:53 PM 66.0 °F 46.9 °F 50% 29.88 in 0.8 mi SSW 17.3 mph 26.5 mph 0.47 in Rain , Thunderstorm Heavy Thunderstorms and Rain
5:58 PM 64.4 °F 46.4 °F 52% 30.15 in 1.0 mi SW 23.0 mph 26.5 mph 0.03 in Rain , Thunderstorm Heavy Thunderstorms and Rain
6:03 PM 64.4 °F 48.2 °F 56% 30.14 in 3.0 mi SW 20.7 mph 26.5 mph 0.05 in Rain , Thunderstorm Heavy Thunderstorms and Rain
6:53 PM 66.0 °F 54.0 °F 65% 29.87 in 10.0 mi South 8.1 mph - 0.06 in Thunderstorm Clear
7:04 PM 66.2 °F 55.4 °F 68% 30.17 in 10.0 mi SSW 10.4 mph - N/A   Clear
7:53 PM 63.0 °F 53.1 °F 70% 29.88 in 10.0 mi South 3.5 mph - N/A   Clear
8:53 PM 64.0 °F 48.9 °F 58% 29.86 in 10.0 mi South 3.5 mph - N/A   Clear
9:53 PM 63.0 °F 52.0 °F 67% 29.88 in 10.0 mi South 5.8 mph - N/A   Clear
10:53 PM 61.0 °F 54.0 °F 78% 29.87 in 10.0 mi SSW 6.9 mph - N/A   Clear
11:53 PM 61.0 °F 52.0 °F 72% 29.86 in 10.0 mi South 8.1 mph - N/A   Clear